Other Surface Observations
Issued by NWS

Home | Current Version | Previous Version | Text Only | Print | Product List | Glossary On
Versions: 1 2 3 4 5 6 7 8 9 10 11 12 13 14 15 16 17 18 19 20 21 22 23 24 25 26 27 28 29 30 31 32 33 34 35 36 37 38 39 40 41 42 43 44 45 46 47 48 49 50
000
SXUS54 KWBC 270459
OSOGT
:SHEF ENCODED 6-MINUTE NOS MET DATA
:NATIONAL WATER LEVEL OBSERVATION NETWORK (NWLON)
:TA(AIR TEMP DEG F)  SLP(SEA LEVEL PRESSURE INCHES)
:UD(WIND DIRECTION WHOLE DEGREES) US(WIND SPEED MPH)
:TW(WATER TEMP DEG F) UG(WIND GUSTS MPH) WC(CONDUCTIVITY uMHOS/CM)
:-9999 (MISSING VALUES)
:TIME ZONE IS LST
:PROVIDED BY DOC/NOAA/NOS/CO-OPS, (301) 713-2540
:corms@noaa.gov
.E OBGN6 20221127 ES DH0442/TAIRG/DIN06/   47/   47
.E OBGN6 20221127 ES DH0442/PLIRG/DIN06/29.78/29.78
.E ALXN6 20221126 ES DH2342/PLIRP/DIN06/29.82/29.82
.E ALXN6 20221126 ES DH2342/TWIRP/DIN06/   46/   46
.A ALXN6 20221126 ES DH2342/TAIRG -9999/UGIRG -9999/PLIRG 29.82/UDIRG -9999/USIRG -9999/TWIRG    46/WCIRG -9999
.E AGCM4 20221126 ES DH2342/TAIRG/DIN06/   43/   43
.E AGCM4 20221126 ES DH2342/PLIRG/DIN06/29.80/29.80
.E AGCM4 20221126 ES DH2342/TWIRG/DIN06/   47/   47
.E MBRM4 20221126 ES DH2342/TAIRG/DIN06/   44/   44
.E MBRM4 20221126 ES DH2342/PLIRG/DIN06/29.79/29.78
.E FTGM4 20221126 ES DH2342/TAIRG/DIN06/   43/   43
.E FTGM4 20221126 ES DH2342/PLIRG/DIN06/29.77/29.77
.E FTGM4 20221126 ES DH2342/USIRG/DIN06/    9/    9
.E FTGM4 20221126 ES DH2342/UDIRG/DIN06/  213/  212
.E FTGM4 20221126 ES DH2342/UGIRG/DIN06/   13/   12
.A OSGN6 20221126 ES DH2348/TAIRP    42/UGIRP    14/PLIRP 29.85/UDIRP   172/USIRP     9/TWIRP -9999/WCIRP -9999
.A OSGN6 20221126 ES DH2342/TAIRG    42/UGIRG    12/PLIRG 29.85/UDIRG   170/USIRG     8/TWIRG -9999/WCIRG -9999
.A RCRN6 20221126 ES DH2342/TAIRG    45/UGIRG -9999/PLIRG 29.81/UDIRG -9999/USIRG -9999/TWIRG -9999/WCIRG -9999
.A NIAN6 20221126 ES DH2348/TAIRP    47/UGIRP -9999/PLIRP 29.85/UDIRP -9999/USIRP -9999/TWIRP -9999/WCIRP -9999
.A NIAN6 20221126 ES DH2342/TAIRG    47/UGIRG -9999/PLIRG 29.85/UDIRG -9999/USIRG -9999/TWIRG -9999/WCIRG -9999
.E BUFN6 20221126 ES DH2342/TAIRG/DIN06/   44/   44
.E BUFN6 20221126 ES DH2342/PLIRG/DIN06/29.84/29.84
.E BUFN6 20221126 ES DH2342/USIRG/DIN06/    8/    8
.E BUFN6 20221126 ES DH2342/UDIRG/DIN06/  177/  176
.E BUFN6 20221126 ES DH2342/UGIRG/DIN06/   11/   10
.E BUFN6 20221126 ES DH2342/TWIRG/DIN06/   40/   40
.A PSTN6 20221126 ES DH2342/TAIRG    43/UGIRG -9999/PLIRG 29.89/UDIRG -9999/USIRG -9999/TWIRG -9999/WCIRG -9999
.A EREP1 20221126 ES DH2348/TAIRP -9999/UGIRP    14/PLIRP -9999/UDIRP   196/USIRP     9/TWIRP -9999/WCIRP -9999
.E EREP1 20221126 ES DH2342/USIRG/DIN06/    9/    9
.E EREP1 20221126 ES DH2342/UDIRG/DIN06/  198/  196
.E EREP1 20221126 ES DH2342/UGIRG/DIN06/   15/   14
.E FAIO1 20221126 ES DH2342/TAIRG/DIN06/   47/   47
.E FAIO1 20221126 ES DH2342/PLIRG/DIN06/29.87/29.87
.E FAIO1 20221126 ES DH2342/USIRG/DIN06/    8/    8
.E FAIO1 20221126 ES DH2342/UDIRG/DIN06/  197/  192
.E FAIO1 20221126 ES DH2342/UGIRG/DIN06/   12/   10
.E FAIO1 20221126 ES DH2342/TWIRG/DIN06/   38/   38
.E CNDO1 20221126 ES DH2348/USIRP/DIN06/    1/    1
.E CNDO1 20221126 ES DH2348/UDIRP/DIN06/  189/  191
.E CNDO1 20221126 ES DH2348/UGIRP/DIN06/    3/    3
.E CNDO1 20221126 ES DH2342/TAIRG/DIN06/   46/   46
.E CNDO1 20221126 ES DH2342/PLIRG/DIN06/29.86/29.86
.E CNDO1 20221126 ES DH2342/USIRG/DIN06/-9999/    1
.E CNDO1 20221126 ES DH2342/UDIRG/DIN06/-9999/  189
.E CNDO1 20221126 ES DH2342/UGIRG/DIN06/-9999/    3
.E MRHO1 20221126 ES DH2342/TAIRP/DIN06/   43/   43
.E MRHO1 20221126 ES DH2342/PLIRP/DIN06/29.81/29.80
.E MRHO1 20221126 ES DH2342/USIRP/DIN06/    4/    5
.E MRHO1 20221126 ES DH2342/UDIRP/DIN06/  157/  160
.E MRHO1 20221126 ES DH2342/UGIRP/DIN06/    6/    7
.E MRHO1 20221126 ES DH2342/TWIRP/DIN06/   42/   42
.E MRHO1 20221126 ES DH2342/TAIRG/DIN06/   43/   43
.E MRHO1 20221126 ES DH2342/PLIRG/DIN06/29.81/29.80
.E MRHO1 20221126 ES DH2342/USIRG/DIN06/    4/    5
.E MRHO1 20221126 ES DH2342/UDIRG/DIN06/  157/  160
.E MRHO1 20221126 ES DH2342/UGIRG/DIN06/    6/    7
.E MRHO1 20221126 ES DH2342/TWIRG/DIN06/   42/   42
.E THRO1 20221126 ES DH2342/TAIRG/DIN06/   43/   43
.E THRO1 20221126 ES DH2342/PLIRG/DIN06/29.80/29.80
.E THRO1 20221126 ES DH2342/USIRG/DIN06/    6/    8
.E THRO1 20221126 ES DH2342/UDIRG/DIN06/  165/  164
.E THRO1 20221126 ES DH2342/UGIRG/DIN06/    7/   10
.E HRBM4 20221126 ES DH2342/TAIRG/DIN06/   43/   43
.E HRBM4 20221126 ES DH2342/PLIRG/DIN06/29.72/29.72
.E HRBM4 20221126 ES DH2342/USIRG/DIN06/   16/   15
.E HRBM4 20221126 ES DH2342/UDIRG/DIN06/  226/  231
.E HRBM4 20221126 ES DH2342/UGIRG/DIN06/   21/   23
.E HRBM4 20221126 ES DH2342/TWIRG/DIN06/   41/   41
.E LPNM4 20221126 ES DH2342/TAIRP/DIN06/   44/   43
.E LPNM4 20221126 ES DH2342/PLIRP/DIN06/29.68/29.69
.E LPNM4 20221126 ES DH2342/USIRP/DIN06/    2/    4
.E LPNM4 20221126 ES DH2342/UDIRP/DIN06/  242/  242
.E LPNM4 20221126 ES DH2342/UGIRP/DIN06/    6/    6
.E LPNM4 20221126 ES DH2342/TAIRG/DIN06/   44/   43
.E LPNM4 20221126 ES DH2342/PLIRG/DIN06/29.68/29.69
.E LPNM4 20221126 ES DH2342/USIRG/DIN06/    2/    4
.E LPNM4 20221126 ES DH2342/UDIRG/DIN06/  242/  242
.E LPNM4 20221126 ES DH2342/UGIRG/DIN06/    6/    6
.E MACM4 20221126 ES DH2342/TAIRG/DIN06/   48/   48
.E MACM4 20221126 ES DH2342/PLIRG/DIN06/29.62/29.62
.E MACM4 20221126 ES DH2342/USIRG/DIN06/   13/   17
.E MACM4 20221126 ES DH2342/UDIRG/DIN06/  237/  231
.E MACM4 20221126 ES DH2342/UGIRG/DIN06/   22/   24
.E MACM4 20221126 ES DH2342/TWIRG/DIN06/   40/   40
.E DTLM4 20221126 ES DH2342/TAIRG/DIN06/   45/   45
.E DTLM4 20221126 ES DH2342/PLIRG/DIN06/29.62/29.62
.E DTLM4 20221126 ES DH2342/USIRG/DIN06/    8/    9
.E DTLM4 20221126 ES DH2342/UDIRG/DIN06/  255/  252
.E DTLM4 20221126 ES DH2342/UGIRG/DIN06/   16/   15
.E DTLM4 20221126 ES DH2342/TWIRG/DIN06/   43/   43
.E RCKM4 20221126 ES DH2342/PLIRG/DIN06/29.60/29.60
.E RCKM4 20221126 ES DH2342/USIRG/DIN06/    7/    5
.E RCKM4 20221126 ES DH2342/UDIRG/DIN06/  242/  228
.E RCKM4 20221126 ES DH2342/UGIRG/DIN06/   10/    9
.A WNEM4 20221126 ES DH2342/TAIRG    44/UGIRG    15/PLIRG 29.62/UDIRG   244/USIRG     8/TWIRG -9999/WCIRG -9999
.E LTRM4 20221126 ES DH2342/TAIRG/DIN06/   44/   43
.E LTRM4 20221126 ES DH2342/PLIRG/DIN06/29.60/29.60
.E LTRM4 20221126 ES DH2342/USIRG/DIN06/    8/    7
.E LTRM4 20221126 ES DH2342/UDIRG/DIN06/  239/  241
.E LTRM4 20221126 ES DH2342/UGIRG/DIN06/   13/   10
.E SWPM4 20221126 ES DH2342/TAIRP/DIN06/   44/   44
.E SWPM4 20221126 ES DH2342/PLIRP/DIN06/29.61/29.61
.E SWPM4 20221126 ES DH2342/USIRP/DIN06/   14/   14
.E SWPM4 20221126 ES DH2342/UDIRP/DIN06/  248/  247
.E SWPM4 20221126 ES DH2342/UGIRP/DIN06/   17/   18
.E SWPM4 20221126 ES DH2342/TWIRP/DIN06/   45/   45
.E SWPM4 20221126 ES DH2342/TAIRG/DIN06/   44/   44
.E SWPM4 20221126 ES DH2342/PLIRG/DIN06/29.61/29.61
.E SWPM4 20221126 ES DH2342/USIRG/DIN06/   14/   14
.E SWPM4 20221126 ES DH2342/UDIRG/DIN06/  248/  247
.E SWPM4 20221126 ES DH2342/UGIRG/DIN06/   17/   18
.E SWPM4 20221126 ES DH2342/TWIRG/DIN06/   45/   45
.E LDTM4 20221126 ES DH2336/TAIRG/DIN06/   47/   46
.E LDTM4 20221126 ES DH2336/PLIRG/DIN06/29.73/29.72
.E LDTM4 20221126 ES DH2336/USIRG/DIN06/   13/   12
.E LDTM4 20221126 ES DH2336/UDIRG/DIN06/  208/  204
.E LDTM4 20221126 ES DH2336/UGIRG/DIN06/   16/   17
.A HLNM4 20221126 ES DH2342/TAIRG    47/UGIRG    20/PLIRG 29.75/UDIRG   171/USIRG    17/TWIRG    44/WCIRG -9999
.A CMTI2 20221126 CS DH2242/TAIRG    44/UGIRG     2/PLIRG 29.74/UDIRG   263/USIRG     1/TWIRG -9999/WCIRG -9999
.E KWNW3 20221126 CS DH2242/TAIRG/DIN06/   40/   41
.E KWNW3 20221126 CS DH2242/PLIRG/DIN06/29.69/29.69
.E KWNW3 20221126 CS DH2242/USIRG/DIN06/    2/    2
.E KWNW3 20221126 CS DH2242/UDIRG/DIN06/  232/  247
.E KWNW3 20221126 CS DH2242/UGIRG/DIN06/    6/    6
.E GBWW3 20221126 CS DH2242/TAIRP/DIN06/   42/   42
.E GBWW3 20221126 CS DH2242/PLIRP/DIN06/29.67/29.67
.E GBWW3 20221126 CS DH2242/USIRP/DIN06/    2/    1
.E GBWW3 20221126 CS DH2242/UDIRP/DIN06/  232/  237
.E GBWW3 20221126 CS DH2242/UGIRP/DIN06/    4/    3
.E GBWW3 20221126 CS DH2236/TAIRG/DIN06/   42/   42
.E GBWW3 20221126 CS DH2236/PLIRG/DIN06/29.67/29.67
.E GBWW3 20221126 CS DH2236/USIRG/DIN06/    2/    2
.E GBWW3 20221126 CS DH2236/UDIRG/DIN06/  230/  232
.E GBWW3 20221126 CS DH2236/UGIRG/DIN06/    3/    4
.E MNMM4 20221126 CS DH2242/TAIRG/DIN06/   43/   43
.E MNMM4 20221126 CS DH2242/PLIRG/DIN06/29.64/29.64
.E MNMM4 20221126 CS DH2242/USIRG/DIN06/   11/   11
.E MNMM4 20221126 CS DH2242/UDIRG/DIN06/  216/  214
.E MNMM4 20221126 CS DH2242/UGIRG/DIN06/   18/   18
.E MNMM4 20221126 CS DH2242/TWIRG/DIN06/   40/   40
.E PNLM4 20221126 ES DH2348/TAIRP/DIN06/   40/   41
.E PNLM4 20221126 ES DH2348/PLIRP/DIN06/29.63/29.63
.E PNLM4 20221126 ES DH2348/USIRP/DIN06/    1/    2
.E PNLM4 20221126 ES DH2348/UDIRP/DIN06/  201/  201
.E PNLM4 20221126 ES DH2348/UGIRP/DIN06/    2/    2
.E PTIM4 20221126 ES DH2342/TAIRG/DIN06/   44/   43
.E PTIM4 20221126 ES DH2342/PLIRG/DIN06/29.61/29.61
.E PTIM4 20221126 ES DH2342/USIRG/DIN06/    5/    3
.E PTIM4 20221126 ES DH2342/UDIRG/DIN06/  232/  221
.E PTIM4 20221126 ES DH2342/UGIRG/DIN06/   11/    9
.A MCGM4 20221126 ES DH2348/TAIRP    40/UGIRP     4/PLIRP 29.62/UDIRP   312/USIRP     2/TWIRP -9999/WCIRP -9999
.E MCGM4 20221126 ES DH2342/TAIRG/DIN06/   40/   40
.E MCGM4 20221126 ES DH2342/PLIRG/DIN06/29.62/29.62
.E MCGM4 20221126 ES DH2342/USIRG/DIN06/    1/    2
.E MCGM4 20221126 ES DH2342/UDIRG/DIN06/  254/  312
.E MCGM4 20221126 ES DH2342/UGIRG/DIN06/    2/    4
.E DULM5 20221126 CS DH2242/TAIRG/DIN06/   40/   40
.E DULM5 20221126 CS DH2242/PLIRG/DIN06/29.80/29.80
.E DULM5 20221126 CS DH2242/USIRG/DIN06/    6/    4
.E DULM5 20221126 CS DH2242/UDIRG/DIN06/  154/  297
.E DULM5 20221126 CS DH2242/UGIRG/DIN06/   10/   11
.E GDMM5 20221126 CS DH2242/TAIRG/DIN06/   39/   39
.E GDMM5 20221126 CS DH2242/PLIRG/DIN06/29.70/29.70



USA.gov is the U.S. government's official web portal to all federal, state and local government web resources and services.